Ypsilanti, MI

5:41 PM EDT on May 22, 2017 (GMT -0400)
Willow Run

Weather History for KYIP - June, 2013

Change the Weather History Date:

Wednesday, June 12, 2013

  Actual Average Record
Temperature  
Mean Temperature 72 °F -  
Max Temperature 80 °F 78 °F 91 °F (1984)
Min Temperature 64 °F 58 °F 46 °F (2006)
Cooling Degree Days 7    
Growing Degree Days 22 (Base 50)    
Moisture  
Dew Point 64 °F    
Average Humidity 74    
Maximum Humidity 84    
Minimum Humidity 62    
Precipitation  
Precipitation 0.37 in - - ()
Sea Level Pressure  
Sea Level Pressure 29.81 in    
Wind  
Wind Speed 4 mph (ESE)    
Max Wind Speed 16 mph    
Max Gust Speed -    
Visibility 8 miles    
Events Rain    
Averages and records for this station are not official NWS values.
T = Trace of Precipitation, MM = Missing Value Source: NWS Daily Summary

Daily Weather History Graph

Daily Weather History Graph

Search for Another Location

Airport or City:

Trip Planner

Search our weather history database for the weather conditions in past years. The results will help you decide how hot, cold, wet, or windy it might be!

Date:

Astronomy

Jun. 12, 2013 Rise Set
Actual Time 5:57 AM EDT 9:11 PM EDT
Civil Twilight 5:22 AM EDT 9:45 PM EDT
Nautical Twilight 4:38 AM EDT 10:30 PM EDT
Astronomical Twilight 3:44 AM EDT 11:24 PM EDT
Moon 9:38 AM EDT (6/12) 11:42 PM EDT (6/12)
Length of Visible Light 16h 23m
Length of Day
15h 13m
Waxing Crescent, 14% of the Moon is Illuminated
Jun 12
Waxing Crescent
Jun 16
First Quarter
Jun 23
Full
Jun 30
Last Quarter
Jul 8
New

Hourly Weather History & Observations

Time (EDT) Temp. Heat Index Dew Point Humidity Pressure Visibility Wind Dir Wind Speed Gust Speed Precip Events Conditions
12:53 AM 72.0 °F - 61.0 °F 68% 29.85 in 10.0 mi WNW 4.6 mph - N/A   Clear
1:53 AM 70.0 °F - 59.0 °F 68% 29.85 in 10.0 mi NW 3.5 mph - N/A   Clear
2:53 AM 68.0 °F - 59.0 °F 73% 29.85 in 10.0 mi West 3.5 mph - N/A   Clear
3:53 AM 64.9 °F - 59.0 °F 81% 29.84 in 10.0 mi West 5.8 mph - N/A   Clear
4:53 AM 64.9 °F - 59.0 °F 81% 29.87 in 10.0 mi West 3.5 mph - N/A   Clear
5:53 AM 64.9 °F - 59.0 °F 81% 29.89 in 10.0 mi Calm Calm - N/A   Clear
6:53 AM 68.0 °F - 62.1 °F 81% 29.88 in 9.0 mi Calm Calm - N/A   Clear
7:53 AM 72.0 °F - 61.0 °F 68% 29.89 in 10.0 mi NW 4.6 mph - N/A   Clear
8:53 AM 73.9 °F - 62.1 °F 66% 29.88 in 10.0 mi Calm Calm - N/A   Clear
9:53 AM 73.0 °F - 63.0 °F 71% 29.89 in 10.0 mi Calm Calm - N/A   Partly Cloudy
10:53 AM 75.0 °F - 64.0 °F 69% 29.90 in 10.0 mi South 3.5 mph - 0.00 in   Clear
11:53 AM 75.0 °F - 63.0 °F 66% 29.92 in 10.0 mi Calm Calm - N/A   Scattered Clouds
12:53 PM 73.9 °F - 64.9 °F 73% 29.85 in 10.0 mi SE 5.8 mph - 0.00 in   Partly Cloudy
1:53 PM 75.9 °F - 64.9 °F 69% 29.84 in 10.0 mi South 6.9 mph - N/A   Scattered Clouds
2:53 PM 79.0 °F - 64.9 °F 62% 29.84 in 10.0 mi South 9.2 mph - N/A   Partly Cloudy
3:53 PM 79.0 °F - 66.0 °F 64% 29.83 in 10.0 mi South 8.1 mph - 0.00 in   Partly Cloudy
4:53 PM 80.1 °F 82.3 °F 66.9 °F 64% 29.80 in 10.0 mi ENE 4.6 mph - N/A   Scattered Clouds
5:53 PM 79.0 °F - 66.9 °F 66% 29.82 in 10.0 mi Calm Calm - N/A   Mostly Cloudy
6:53 PM 75.9 °F - 66.9 °F 74% 29.78 in 10.0 mi ESE 3.5 mph - 0.00 in   Scattered Clouds
7:53 PM 75.0 °F - 66.0 °F 73% 29.75 in 9.0 mi ENE 5.8 mph - 0.00 in   Overcast
8:19 PM 73.4 °F - 66.2 °F 78% 29.76 in 1.5 mi NNE 16.1 mph - 0.25 in Rain Heavy Rain
8:27 PM 71.6 °F - 66.2 °F 83% 29.77 in 1.0 mi Variable 3.5 mph - 0.34 in Rain Rain
8:31 PM 71.6 °F - 66.2 °F 83% 29.77 in 2.0 mi East 3.5 mph - 0.34 in Rain Light Rain
8:38 PM 71.6 °F - 66.2 °F 83% 29.76 in 5.0 mi ENE 6.9 mph - 0.34 in   Haze
8:53 PM 72.0 °F - 66.0 °F 81% 29.74 in 4.0 mi Calm Calm - 0.35 in   Haze
9:37 PM 71.6 °F - 66.2 °F 83% 29.75 in 4.0 mi ESE 6.9 mph - N/A   Haze
9:53 PM 72.0 °F - 66.9 °F 84% 29.73 in 3.0 mi East 4.6 mph - N/A   Haze
10:53 PM 71.1 °F - 64.9 °F 81% 29.67 in 4.0 mi East 6.9 mph - N/A   Haze
11:53 PM 70.0 °F - 64.9 °F 84% 29.66 in 4.0 mi NNE 6.9 mph - 0.02 in Rain Rain